Regional Weather Roundup
Issued by NWS Newport/Morehead, NC

Current Version | Previous Version | Text Only | Print | Product List | Glossary On
Versions: 1 2 3 4 5 6 7 8 9 10 11 12 13 14 15 16 17 18 19 20 21 22 23 24 25 26 27 28 29 30 31 32 33 34 35 36 37 38 39 40 41 42 43 44 45 46 47 48 49 50
000
ASUS42 KMHX 300825
RWRMHX
WEATHER ROUNDUP FOR EASTERN NORTH CAROLINA
NATIONAL WEATHER SERVICE NEWPORT/MOREHEAD CITY NC
400 AM EDT SAT JUL 30 2016

NOTE: "FAIR" INDICATES FEW OR NO CLOUDS BELOW 12,000 FEET
WITH NO SIGNIFICANT WEATHER AND/OR OBSTRUCTIONS TO VISIBILITY

NCZ015>017-031-032-045>047-102-103-300900-
NORTH COAST

CITY           SKY/WX    TMP DP  RH WIND       PRES   REMARKS
EDENTON        CLEAR    N/A N/A N/A CALM      29.94S
ELIZABETH CITY CLEAR     76  74  93 CALM      29.94S
KITTY HAWK     SUNNY     75  75 100 CALM      29.93S
MANTEO           N/A     74  74 100 CALM      29.94S

$$

NCZ045>047-081-094-103-104-300900-
CENTRAL COAST

CITY           SKY/WX    TMP DP  RH WIND       PRES   REMARKS
FRISCO         CLEAR     77  75  93 CALM      29.93F

$$

NCZ095-097-098-100-101-300900-
SOUTHERN COAST

CITY           SKY/WX    TMP DP  RH WIND       PRES   REMARKS
BEAUFORT       CLEAR     81  80  97 SW6       29.92F
CEDAR ISLAND   NOT AVBL
JACKSONVILLE   CLOUDY    80  76  87 CALM      29.92F
PINEY ISLAND   NOT AVBL
WILMINGTON     MOCLDY    79  73  82 SW6       29.92F


$$

NCZ011>013-027>030-043-044-078>080-089-090>093-098-300900-
COASTAL PLAIN

CITY           SKY/WX    TMP DP  RH WIND       PRES   REMARKS
AHOSKIE        CLEAR     71  71  98 CALM      29.94S
CLINTON        CLEAR     75  74  95 CALM      29.92F
ELIZABETHTOWN  PTCLDY    78  76  94 CALM      29.93S
GOLDSBORO      CLEAR     75  75 100 E2        29.91F
GREENVILLE     CLEAR     77  75  94 CALM      29.95F
HAVELOCK       CLEAR     79  76  90 CALM      29.93F
KENANSVILLE    NOT AVBL
KINSTON        CLEAR     76  73  91 CALM      29.94S
NEW BERN       CLEAR     77  74  90 CALM      29.93F
RICHLANDS      PTCLDY    76  74  93 CALM      29.93F
ROCKY MOUNT    CLEAR     74  74 100 CALM      29.93F
WASHINGTON     CLEAR     76  73  92 CALM      29.93F
WHITEVILLE     PTCLDY    78  76  94 CALM      29.92F

$$

AMZ130-135-150-152-154-156-158-170-250-252-270-ANZ085-086-088-633-658-670-300900-
MARINE OBSERVATIONS

STATION/POSITION TIME  TEMP    WIND        PRES    WAVE   SWELL
                       AIR SEA DIR/SP/G            HT/PER HT/PER
                 (UTC) (F)     (DEG/KT/KT) (MB)    (FT/S) (FT/S)
CHESAPEAKE LIGHT NOT AVBL
64 E VA BEACH    0750   80 83   20/  4/  6 1013.4    2/ 5   2/ 5
DUCK             0800   80 70  170/  2/  2 1013.0
2 E DUCK         0711      78                N/A     1/13
OREGON INLET     0800   78 77  360/  2/  3 1013.6
13E OREGON INLT  0800      79                N/A     3/ 5   2/ 5
HATTERAS CG      0800   81 83  130/  1/  2 1013.0
DIAMOND BUOY     0750   83 86  290/  4/  6 1013.3    3/ 6   2/ 6
CAPE LOOKOUT     0800   82     260/  7/  8 1013.0
BEAUFORT LAB     0800   82 83  230/  2/  5 1012.7
30 SE NEW RVR IN 0808   84 85  240/  8/ 12 1013.2
30 SE NEW RVR IN 0725      85                N/A     3/ 6
27 SE WRIGHTSVLE 0808   84 84  230/ 12/ 16 1013.2
5 SE WRIGHTSVLE  0808   81 80  220/  4/  8 1013.8
225 S CAPE HAT   NOT AVBL
41 SE CHARLESTON 0750   86 86  230/ 16/ 19 1013.3    3/ 5   2/ 8

$$



USA.gov is the U.S. government's official web portal to all federal, state and local government web resources and services.